Location: Rounton
(54.4000°N, 1.3500°W)
Time: 14:32:31
(UTC+00:00)

Transit 2A - Pass Details

Date: 07 December 2021
Orbit: 591 x 967 km, 66.7° (Epoch: 21 January)

Event Time Altitude Azimuth Distance (km) Brightness Sun altitude
Rises 02:04:36 0° 261° (W) 3,466 - -50.2°
Reaches altitude 10° 02:07:14 10° 270° (W) 2,579 - -49.9°
Maximum altitude 02:12:48 36° 336° (NNW) 1,455 - -49.3°
Exits shadow 02:18:05 12° 39° (NE) 2,534 9.1 -48.7°
Drops below altitude 10° 02:18:38 10° 42° (NE) 2,712 9.3 -48.6°
Sets 02:21:29 0° 50° (NE) 3,666 10.2 -48.3°
